Liberty, KS

11:01 PM CDT on September 27, 2016 (GMT -0500)
Coffeyville Municipal

Weather History for KCFV - March, 2014

Change the Weather History Date:

Monday, March 17, 2014

  Actual Average Record
Temperature  
Mean Temperature 37 °F -  
Max Temperature 52 °F 55 °F 82 °F (2011)
Min Temperature 23 °F 34 °F 23 °F (2014)
Degree Days  
Heating Degree Days 28    
Moisture  
Dew Point 25 °F    
Average Humidity 63    
Maximum Humidity 92    
Minimum Humidity 41    
Precipitation  
Precipitation 0.00 in - - ()
Sea Level Pressure  
Sea Level Pressure 29.88 in    
Wind  
Wind Speed 6 mph (SSE)    
Max Wind Speed 14 mph    
Max Gust Speed -    
Visibility 10 miles    
Events      
Averages and records for this station are not official NWS values.
T = Trace of Precipitation, MM = Missing Value Source: NWS Daily Summary

Daily Weather History Graph

Daily Weather History Graph

Search for Another Location

Airport or City:

Trip Planner

Search our weather history database for the weather conditions in past years. The results will help you decide how hot, cold, wet, or windy it might be!

Date:

Astronomy

Mar. 17, 2014 Rise Set
Actual Time 7:30 AM CDT 7:31 PM CDT
Civil Twilight 7:04 AM CDT 7:57 PM CDT
Nautical Twilight 6:34 AM CDT 8:27 PM CDT
Astronomical Twilight 6:03 AM CDT 8:58 PM CDT
Moon 8:46 PM CDT (3/17) 7:48 AM CDT (3/17)
Length of Visible Light 12h 53m
Length of Day
12h 01m
Full, 99% of the Moon is Illuminated
Mar 17
Full
Mar 23
Last Quarter
Mar 30
New
Apr 7
First Quarter
Apr 15
Full

Hourly Weather History & Observations

Time (CDT) Temp. Windchill Dew Point Humidity Pressure Visibility Wind Dir Wind Speed Gust Speed Precip Events Conditions
12:52 AM 28.9 °F 22.8 °F 23.0 °F 78% 30.13 in 10.0 mi ENE 5.8 mph - N/A   Clear
1:52 AM 27.0 °F 23.0 °F 23.0 °F 85% 30.12 in 10.0 mi North 3.5 mph - N/A   Clear
2:52 AM 27.0 °F 23.0 °F 21.9 °F 81% 30.07 in 10.0 mi NNE 3.5 mph - N/A   Clear
3:52 AM 26.1 °F 20.5 °F 21.0 °F 81% 30.07 in 10.0 mi North 4.6 mph - N/A   Clear
4:52 AM 26.1 °F 21.9 °F 21.0 °F 81% 30.04 in 10.0 mi NNW 3.5 mph - N/A   Clear
5:52 AM 24.1 °F 18.2 °F 21.0 °F 88% 30.03 in 10.0 mi NW 4.6 mph - N/A   Clear
6:52 AM 24.1 °F - 21.0 °F 88% 30.00 in 10.0 mi Calm Calm - N/A   Clear
7:52 AM 23.0 °F - 21.0 °F 92% 30.00 in 8.0 mi Calm Calm - N/A   Clear
8:52 AM 28.0 °F - 23.0 °F 81% 30.01 in 10.0 mi Calm Calm - N/A   Clear
9:52 AM 30.9 °F 27.5 °F 23.0 °F 72% 29.99 in 10.0 mi ESE 3.5 mph - N/A   Clear
10:52 AM 35.1 °F 30.1 °F 23.0 °F 61% 29.96 in 10.0 mi South 5.8 mph - N/A   Clear
11:52 AM 39.0 °F 34.0 °F 24.1 °F 55% 29.93 in 10.0 mi SE 6.9 mph - N/A   Clear
12:52 PM 43.0 °F 38.8 °F 25.0 °F 49% 29.89 in 10.0 mi South 6.9 mph - N/A   Clear
1:52 PM 46.0 °F 41.0 °F 26.1 °F 46% 29.84 in 10.0 mi SSW 10.4 mph - N/A   Clear
2:52 PM 48.9 °F - 28.0 °F 44% 29.80 in 10.0 mi South 10.4 mph - N/A   Clear
3:52 PM 50.0 °F - 28.0 °F 43% 29.75 in 10.0 mi South 13.8 mph - N/A   Clear
4:52 PM 51.1 °F - 28.0 °F 41% 29.73 in 10.0 mi South 10.4 mph - N/A   Clear
5:52 PM 51.1 °F - 28.9 °F 43% 29.72 in 10.0 mi South 11.5 mph - N/A   Clear
6:52 PM 48.9 °F - 28.0 °F 44% 29.70 in 10.0 mi South 9.2 mph - N/A   Clear
7:52 PM 46.0 °F 41.4 °F 28.0 °F 50% 29.69 in 10.0 mi SSE 9.2 mph - N/A   Clear
8:52 PM 45.0 °F 39.7 °F 28.0 °F 52% 29.68 in 10.0 mi SSE 10.4 mph - N/A   Clear
9:52 PM 44.1 °F 39.0 °F 27.0 °F 51% 29.66 in 10.0 mi SSE 9.2 mph - N/A   Clear
10:52 PM 44.1 °F 39.0 °F 27.0 °F 51% 29.65 in 10.0 mi SSE 9.2 mph - N/A   Clear
11:52 PM 43.0 °F 36.8 °F 27.0 °F 53% 29.64 in 10.0 mi SSE 11.5 mph - N/A   Clear